Regional Weather Roundup
Issued by NWS

Home | Current Version | Previous Version | Graphics & Text | Print | Product List | Glossary On
Versions: 1 2 3 4 5 6 7 8 9 10 11 12 13 14 15 16 17 18 19 20 21 22 23 24 25 26 27 28 29 30 31 32 33 34 35 36 37 38 39 40 41 42 43 44 45 46 47
000
ASUS43 KDMX 240707
RWRIA

WEATHER ROUNDUP FOR IOWA
NATIONAL WEATHER SERVICE DES MOINES IA
200 AM CDT THU JUL 24 2014

NOTE: "FAIR" INDICATES FEW OR NO CLOUDS BELOW 12,000 FEET WITH NO
SIGNIFICANT WEATHER AND/OR OBSTRUCTIONS TO VISIBILITY.

* - THESE STATIONS ARE NOT NWS STATIONS...THUS NOT UNDER NWS
QUALITY CONTROL.  THEY ALSO DO NOT REPORT WEATHER SUCH
AS PRECIPITATION OR FOG.

IAZ001>003-012>014-020>022-031>034-043>046-240800-
   NORTHWEST IOWA

CITY           SKY/WX    TMP DP  RH WIND       PRES   REMARKS
CARROLL *      CLEAR     57  55  94 CALM      30.18S
CHEROKEE *     CLEAR     63  61  94 CALM      30.18S
DENISON *      CLEAR     64  61  88 E3        30.16S
LE MARS *      PTCLDY    68  61  77 CALM      30.17S
ORANGE CITY *  CLEAR     64  57  77 E3        30.18F
SHELDON *      CLOUDY    59  55  88 SE5       30.18S
SIOUX CITY     CLEAR     64  61  90 E6        30.16S
SPENCER        MOCLDY    61  56  83 CALM      30.18F
STORM LAKE *   CLEAR     63  61  94 SE3       30.19F
$$

IAZ055>058-069>071-079>083-090>094-240800-
   SOUTHWEST IOWA

CITY           SKY/WX    TMP DP  RH WIND       PRES   REMARKS
ATLANTIC *     PTCLDY    61  59  94 N3        30.17S
AUDUBON *      CLEAR     59  57  94 CALM      30.19S
CLARINDA *     CLEAR     63  61  94 CALM      30.18S
COUNCIL BLFS *   N/A     68  64  88 E7        30.16S
CRESTON *      CLEAR     63  59  88 CALM      30.18S
HARLAN  *      CLEAR     61  59  94 CALM      30.21S
LAMONI         CLEAR     63  59  87 CALM      30.17S
RED OAK *      CLEAR     64  61  88 CALM      30.17S
SHENANDOAH *   CLEAR     64  63  94 NE5       30.17S
$$

IAZ047>049-059>061-072>074-084-240800-
   CENTRAL IOWA

CITY           SKY/WX    TMP DP  RH WIND       PRES   REMARKS
AMES           MOCLDY    62  59  90 CALM      30.17R
ANKENY *       CLEAR     61  59  94 CALM      30.17R
CHARITON *     CLEAR     61  59  94 W3        30.17S
DES MOINES     CLEAR     67  58  72 CALM      30.16S
GRINNELL*      CLEAR     61  57  88 NW3       30.17R
KNOXVILLE *    CLEAR     63  57  82 NW5       30.15S
MARSHALLTOWN   PTCLDY    59  57  93 NW3       30.16S
PELLA *        CLEAR     61  57  88 CALM      30.17R
PERRY *        CLOUDY    61  59  94 W3        30.18S
$$

IAZ004>006-015-016-023>025-035-036-240800-
   NORTH CENTRAL IOWA

CITY           SKY/WX    TMP DP  RH WIND       PRES   REMARKS
ALGONA *       PTCLDY    59  55  88 CALM      30.19S
CLARION *      CLEAR     57  55  94 CALM      30.18S
ESTHERVILLE    CLEAR     57  54  89 N3        30.18F
FORT DODGE *   CLEAR     59  57  94 CALM      30.19R
MASON CITY     CLEAR     57  56  96 CALM      30.19S
FOREST CITY *  CLEAR     55  55 100 CALM      30.19R
IOWA FALLS *     N/A     59  57  94 W3        30.19S
$$

IAZ007>011-017>019-026>030-037>042-050>054-066-240800-
   NORTHEAST IOWA

CITY           SKY/WX    TMP DP  RH WIND       PRES   REMARKS
CEDAR RAPIDS   CLEAR     61  56  83 NW3       30.14F
CHARLES CITY * CLEAR     59  55  88 CALM      30.18S
CLINTON *      CLEAR     61  55  82 SE5       30.19S
DECORAH *      CLEAR     59  57  94 CALM      30.16S
DUBUQUE        CLEAR     60  58  92 SE7       30.17R
MONTICELLO *   PTCLDY    57  57 100 CALM      30.15S
OELWEIN *      CLEAR     61  57  88 CALM      30.17S
WATERLOO       CLEAR     59  56  89 CALM      30.15S
$$

IAZ064-065-067-068-078-240800-
   EAST CENTRAL IOWA

CITY           SKY/WX    TMP DP  RH WIND       PRES   REMARKS
DAVENPORT      CLEAR     62  56  80 SE9       30.17R
IOWA CITY      CLEAR     61  58  90 W3        30.16S
MT. PLEASANT * CLEAR     61  59  94 CALM      30.15S
MUSCATINE *    PTCLDY    59  57  94 CALM      30.15R
QUAD CITIES    PTCLDY    60  56  86 E7        30.16R
$$

IAZ062-063-075>077-085>089-095>099-240800-
   SOUTHEAST IOWA

CITY           SKY/WX    TMP DP  RH WIND       PRES   REMARKS
BURLINGTON     PTCLDY    61  58  90 CALM      30.14S
FAIRFIELD *    CLEAR     59  57  94 N3        30.15F
FORT MADISON * CLEAR     61  61 100 CALM      30.15R
KEOKUK *       CLEAR     59  59 100 CALM      30.13S
OSKALOOSA *      N/A     63  57  82 CALM      30.15S
CENTERVILLE *  CLEAR     55  55 100 CALM      30.17S
OTTUMWA        CLEAR     58  56  93 CALM      30.14F
WASHINGTON *   CLEAR     61  59  94 CALM      30.15S
$$

ABBREVIATIONS USED IN REMARKS
   TC - TEMPERATURES IN CELSIUS
  WCI - WIND CHILL INDEX
   HX - HEAT INDEX
  VSB - VISIBILITY
$$




USA.gov is the U.S. government's official web portal to all federal, state and local government web resources and services.